Theta_e
319 319 319 320 321 322 323 326 327 328 329 330 330 330 329 328 327 328 327 328 328 328 320 321 321 327 328 329 328 327 315 323 334 339 339 334 336 334 332 331 333 334 333
319 319 319 320 321 322 325 327 329 330 331 331 331 331 330 329 328 328 328 328 327 328 322 324 321 325 325 329 328 327 319 318 329 336 339 336 337 336 335 332 332 333 332
320 320 320 320 321 322 327 329 331 332 332 332 330 330 331 330 330 329 328 328 327 329 325 326 326 327 329 330 328 327 326 314 324 331 336 335 330 337 333 330 330 332 332
321 320 321 321 322 323 329 331 332 333 332 330 330 331 332 330 329 330 329 328 327 327 328 326 326 326 326 327 328 327 325 319 319 330 335 336 333 335 332 328 329 331 334
325 322 321 322 323 327 333 331 333 333 331 331 330 329 328 328 329 329 329 328 327 326 327 328 327 326 325 326 326 324 326 323 318 328 333 335 335 336 335 329 331 333 333
333 328 323 323 327 334 332 333 332 331 332 331 329 327 326 326 327 328 329 328 327 326 326 328 328 325 325 326 326 318 327 324 316 325 329 333 333 335 335 332 333 333 334
335 330 331 330 334 333 333 333 332 333 331 329 328 326 325 325 325 327 328 328 327 326 327 328 328 326 327 326 324 314 323 326 318 322 328 330 333 335 335 334 333 333 330
336 336 335 335 334 333 334 333 332 331 330 328 327 326 326 325 325 326 327 327 327 326 326 327 327 326 326 326 327 320 319 324 322 320 328 330 333 334 335 334 333 333 330
337 339 337 334 335 334 334 332 332 331 327 326 326 326 326 325 325 326 326 326 327 326 327 327 327 326 326 325 326 327 321 318 324 320 327 330 331 334 334 333 333 328 324
340 337 335 333 333 334 333 332 331 326 325 325 325 325 325 325 324 324 326 327 327 327 326 326 326 326 325 324 325 328 322 317 324 324 328 332 332 334 333 333 330 327 326
337 335 334 334 334 332 331 330 324 323 322 322 323 323 324 325 324 324 324 322 325 326 326 326 326 326 325 325 326 327 322 318 325 326 329 332 332 333 331 332 330 328 327
334 333 334 334 333 332 328 323 322 321 323 323 323 322 323 324 323 323 324 325 324 326 326 326 326 325 325 326 326 327 322 321 325 328 331 332 333 331 332 332 329 328 325
334 333 331 332 330 327 324 322 321 323 323 323 324 324 322 322 323 323 323 324 326 325 326 326 325 324 325 326 325 327 328 323 326 328 330 332 332 329 331 329 328 320 320
332 332 329 327 325 325 323 322 322 324 325 324 324 324 324 322 322 323 323 323 326 326 326 326 325 326 325 325 325 327 327 327 330 329 331 333 332 331 330 327 317 322 321
331 328 325 324 324 323 323 323 325 326 325 325 324 324 324 323 322 322 323 325 325 325 325 324 324 324 325 324 325 326 327 324 326 329 332 332 330 329 326 317 321 320 309
328 325 323 323 323 325 326 327 327 326 325 324 324 324 323 323 322 323 324 324 325 326 325 324 323 324 324 325 325 326 327 325 326 330 332 331 326 321 316 321 320 319 310
324 324 323 325 326 327 327 327 327 327 326 323 322 323 324 323 324 325 325 325 326 326 326 324 325 328 329 327 326 327 327 328 329 331 329 328 325 322 320 320 320 312 308
322 324 325 325 325 326 327 327 327 328 327 325 324 322 324 323 325 326 325 326 325 326 327 326 327 329 328 327 330 328 329 329 330 330 329 327 317 317 320 321 318 317 315
324 324 325 325 325 326 326 327 328 328 327 326 325 324 325 324 325 325 325 326 327 327 326 326 327 327 328 330 329 328 328 326 326 324 318 317 318 320 320 319 319 315 314
325 325 325 325 326 326 327 328 327 326 326 324 326 325 325 325 325 325 326 327 327 327 326 328 327 326 326 325 327 325 322 324 319 318 317 316 318 319 318 319 314 313 313
325 325 325 326 326 328 328 328 327 327 327 327 326 325 326 326 327 327 327 326 327 327 326 326 325 325 324 323 325 324 324 322 319 320 321 319 319 318 318 315 313 312 313
324 324 325 325 324 327 328 328 327 327 327 326 327 326 326 326 327 327 327 327 327 326 326 325 324 324 324 324 324 323 322 319 317 318 319 318 318 320 317 313 312 313 315
324 324 326 325 325 324 327 328 328 328 328 327 327 327 327 327 326 326 325 324 325 324 324 324 324 323 322 323 323 320 320 319 318 319 320 318 319 318 313 311 313 315 313
324 324 325 325 326 325 325 327 328 327 327 328 328 327 326 326 326 325 323 324 324 323 323 323 323 322 322 322 321 321 320 320 320 319 319 318 317 316 315 315 314 313 313
324 324 325 326 326 325 326 328 327 327 328 328 328 327 326 325 324 324 323 323 323 323 323 322 322 322 321 321 321 321 321 321 319 318 318 317 314 313 312 312 313 313 315
325 325 325 327 326 323 327 328 327 327 328 327 326 325 324 324 323 323 323 323 323 322 321 321 321 322 322 321 320 321 322 321 318 313 311 311 311 312 313 313 313 315 315
Wind_Speed
40 36 31 27 23 19 18 18 15 14 11 10 10 11 12 12 12 12 10 11 12 13 15 22 22 20 17 16 13 11 15 18 18 18 20 19 15 15 15 15 15 15 14
43 36 32 30 24 21 20 16 16 15 13 13 13 14 14 15 15 15 15 14 14 12 12 16 18 20 18 18 15 12 13 18 18 18 21 19 18 15 14 17 16 16 15
47 37 32 29 25 21 20 18 17 17 16 15 15 16 17 16 18 18 18 16 14 11 13 14 13 15 17 17 15 14 13 17 18 18 20 23 24 17 16 15 15 16 17
46 37 33 31 25 25 21 19 17 17 16 16 18 19 20 19 20 21 19 17 15 15 12 14 12 11 12 14 14 15 15 16 18 18 18 17 15 17 14 15 16 15 19
38 35 34 29 27 26 20 16 16 16 17 17 19 19 22 22 21 22 22 19 16 15 15 17 13 10 10 11 11 15 16 15 18 16 16 16 15 10 13 17 15 14 20
26 28 28 29 24 22 18 15 13 15 18 19 21 22 20 20 21 22 23 19 19 16 17 19 15 11 10 9 9 12 16 14 18 16 17 18 18 14 14 17 15 17 26
21 24 27 26 24 22 17 13 14 17 18 19 20 20 19 19 19 20 19 19 19 16 16 18 18 12 9 9 6 11 14 14 16 16 16 19 17 14 13 15 14 26 21
22 21 24 23 21 19 17 15 15 17 19 18 16 14 11 14 16 20 18 18 17 17 15 19 19 15 12 9 5 7 12 14 14 17 15 17 16 15 15 15 22 24 21
20 23 18 18 19 17 15 14 15 17 17 14 11 9 4 4 6 8 19 19 17 18 16 15 17 15 15 12 9 8 11 14 13 16 14 17 16 17 13 15 27 28 25
22 16 20 16 17 15 13 13 16 16 12 11 11 12 13 6 2 2 10 17 13 13 15 14 14 13 12 14 10 9 10 14 13 15 14 18 15 16 18 32 37 30 7
18 19 18 17 16 12 14 16 14 10 11 10 11 11 13 10 5 1 1 8 13 13 13 15 13 14 11 11 10 6 11 13 12 13 14 16 18 20 21 30 25 16 10
20 20 18 15 13 14 14 11 10 9 8 7 8 11 14 15 15 10 3 4 10 16 15 16 14 14 13 11 10 10 11 14 12 14 16 18 16 15 27 29 22 16 11
21 16 11 14 12 12 9 9 9 8 7 6 6 7 10 13 11 9 10 3 8 12 15 17 13 14 13 10 9 9 13 13 13 14 19 19 20 17 23 20 17 17 18
12 13 10 10 9 9 8 8 8 6 7 8 8 6 6 10 13 8 9 8 6 10 13 13 15 14 14 11 10 11 11 14 14 15 21 22 21 23 20 19 21 21 21
11 8 7 9 9 8 7 6 5 5 8 9 9 7 6 7 11 12 11 9 11 7 13 13 12 14 13 13 13 13 12 14 13 16 24 27 26 23 21 24 24 24 21
9 8 9 9 8 7 5 4 5 7 8 9 8 7 7 7 9 10 10 12 9 8 9 12 13 12 16 15 16 15 13 15 14 19 30 27 19 30 27 28 26 22 22
8 9 11 9 7 4 4 5 7 9 8 8 8 8 7 10 10 9 8 10 11 11 9 7 10 11 12 12 16 14 19 19 16 26 40 23 27 28 31 28 25 20 18
12 13 10 6 2 4 6 9 10 11 10 10 9 9 7 9 10 10 9 9 11 12 10 12 16 16 11 11 14 16 22 20 25 38 25 30 32 34 32 26 23 15 14
11 11 8 3 2 6 7 9 10 6 7 9 10 9 8 8 10 11 10 11 12 12 13 16 22 16 18 16 23 23 23 38 39 32 35 35 35 30 23 19 18 19 13
13 8 5 1 4 6 6 3 2 3 5 7 7 9 9 9 9 10 10 10 12 14 14 22 20 22 25 27 22 37 42 42 42 35 33 32 29 24 19 20 25 17 13
10 8 5 1 4 5 3 4 1 1 3 4 6 9 9 9 8 11 9 10 14 16 21 25 25 27 30 37 39 44 39 37 35 36 33 27 24 19 23 27 20 16 8
9 7 5 4 6 6 5 4 1 1 2 4 7 9 10 9 6 9 8 10 15 18 26 28 31 35 40 41 43 39 39 44 39 31 28 23 22 22 23 24 17 12 8
8 7 4 4 6 7 6 6 3 2 4 8 9 9 11 11 10 10 10 13 14 12 16 22 30 35 41 40 42 46 45 40 38 33 28 27 24 21 20 19 15 12 10
7 5 3 2 5 6 6 5 3 3 7 9 9 9 11 7 6 9 15 20 19 15 15 21 26 28 35 43 44 42 40 37 31 30 23 27 23 20 18 17 15 12 9
8 7 3 1 4 5 5 6 6 7 11 10 10 9 7 8 12 18 22 23 20 19 21 25 26 32 40 42 34 36 35 33 31 28 25 24 24 22 18 15 13 11 11
9 7 4 1 3 4 4 5 6 7 10 12 10 8 13 14 15 19 23 27 24 22 22 27 28 33 38 31 27 27 29 28 31 27 23 20 20 18 13 15 14 13 12
Wind_Direction
239 239 237 238 244 249 256 253 261 261 268 274 276 274 266 256 257 256 251 262 270 268 247 230 235 235 233 231 233 239 223 220 221 223 221 213 213 210 212 208 210 212 202
242 241 241 242 245 253 256 257 262 262 268 271 275 272 268 259 256 256 262 265 272 264 240 229 233 234 234 230 234 234 227 220 222 228 212 221 223 205 214 216 210 210 207
244 242 243 243 249 257 258 255 258 264 267 274 277 278 275 266 257 259 265 270 266 255 241 235 233 223 224 217 236 237 231 220 219 222 228 217 224 200 204 207 212 218 204
245 242 242 242 241 246 246 254 261 264 272 277 275 274 277 273 261 263 262 266 259 244 241 230 225 219 223 231 233 237 236 224 215 221 231 229 248 189 194 202 210 227 202
248 243 241 242 244 235 236 246 259 266 269 279 282 278 276 271 264 259 257 260 252 246 236 226 219 227 222 221 244 236 231 223 212 214 217 224 233 228 209 215 217 232 204
255 241 236 233 230 227 237 247 263 264 269 278 283 279 272 267 261 255 252 250 243 242 234 223 218 216 220 234 255 231 220 217 212 207 208 212 218 218 208 218 227 197 194
240 223 224 220 210 230 236 252 254 258 272 285 284 280 273 269 266 261 249 239 237 234 230 216 211 210 222 224 245 225 222 218 210 205 206 212 214 214 221 215 210 193 176
221 222 221 207 208 220 234 247 258 265 279 285 278 276 283 276 264 255 247 237 228 227 223 218 216 214 217 224 225 223 222 225 211 204 206 212 208 212 203 208 194 196 184
211 211 207 206 216 225 245 259 266 277 282 277 263 241 252 256 304 273 230 226 221 224 224 218 214 224 216 219 226 235 214 209 209 203 203 202 205 200 202 191 191 161 139
203 199 195 205 214 233 256 269 276 279 268 262 255 244 239 256 298 342 217 224 205 216 210 210 208 203 219 214 227 222 213 203 202 202 199 187 191 197 212 179 174 157 129
191 195 197 211 222 249 264 277 274 261 262 259 255 250 235 226 225 233 89 213 223 209 204 208 210 207 212 209 214 222 206 199 201 201 198 186 183 189 203 182 175 165 176
196 197 201 213 235 254 267 260 250 244 249 256 261 254 237 232 236 241 222 176 229 218 204 202 206 209 210 218 214 215 200 197 205 205 187 190 182 181 181 192 180 192 185
184 191 210 228 247 255 237 236 230 234 246 266 267 260 239 231 232 234 231 216 181 193 199 202 207 210 208 201 204 203 196 197 204 204 186 191 185 181 192 175 185 146 143
183 196 230 239 227 219 217 223 223 241 263 264 266 264 251 226 222 217 218 223 171 175 183 195 206 215 217 220 209 196 200 189 194 200 188 187 188 179 183 170 155 146 147
192 205 207 187 195 203 210 209 225 252 269 265 253 252 250 223 216 206 207 226 224 192 198 205 205 215 207 208 200 199 192 189 186 195 190 188 183 180 173 154 153 155 147
193 192 178 175 180 181 199 237 257 268 272 257 241 238 228 203 195 206 221 216 216 231 198 210 203 205 205 201 196 196 194 193 193 183 194 168 184 160 154 156 155 155 154
175 166 160 158 162 185 246 275 276 273 264 242 235 227 222 209 212 217 221 222 227 221 218 183 172 170 168 186 185 188 178 176 175 179 168 171 172 149 153 153 154 151 157
148 155 157 162 213 277 284 281 281 269 246 234 231 231 217 206 211 215 223 224 221 221 214 159 165 165 167 162 162 157 158 161 174 173 180 169 145 150 155 158 152 161 167
164 166 162 176 260 300 308 298 277 253 217 221 224 217 207 208 209 220 227 231 209 204 195 175 160 165 166 175 165 159 164 160 153 158 149 148 149 153 151 150 160 161 166
156 155 152 141 316 322 327 297 289 232 212 206 211 208 211 212 219 229 237 220 192 186 175 172 165 162 165 158 161 154 141 150 138 138 140 148 153 159 157 168 163 159 166
157 146 139 48 16 24 24 9 1 167 222 212 205 210 207 210 221 231 216 203 183 176 172 165 156 158 158 155 157 149 147 146 139 145 153 156 160 164 170 165 159 170 178
151 152 149 49 37 37 29 15 355 19 236 199 173 180 189 192 202 171 176 182 188 186 174 173 162 162 159 157 157 155 152 145 145 159 158 155 165 160 169 166 177 183 200
156 163 138 56 39 34 33 29 27 75 119 129 150 181 179 155 149 144 142 154 170 162 186 181 174 169 167 166 156 147 151 150 151 157 162 155 163 169 168 172 186 195 200
170 178 168 48 27 22 21 20 49 118 133 130 132 142 152 155 166 163 143 148 160 158 170 174 172 171 168 163 154 152 153 153 151 159 174 163 171 178 185 185 186 193 204
182 184 198 19 3 24 36 49 59 114 129 128 131 147 177 150 156 158 150 146 154 164 171 172 168 166 161 155 154 155 152 153 157 166 174 168 169 170 174 184 195 206 210
194 202 217 308 344 72 74 74 73 109 135 130 127 123 123 131 146 150 150 147 143 150 156 156 154 150 155 158 158 158 161 168 163 163 171 174 169 168 188 197 205 210 216